Charlottesville, VA

9:39 AM EDT on October 23, 2019 (GMT -0400)
Charlottesville-Albemarle

Weather History for KCHO - August, 2019

Change the Weather History Date:

Monday, August 19, 2019

  Actual Average Record
Temperature  
Mean Temperature 83 °F 74 °F  
Max Temperature 96 °F 85 °F 107 °F (1914)
Min Temperature 70 °F 63 °F 55 °F (1976)
Degree Days  
Heating Degree Days 0 0  
Month to date heating degree days 0 0  
Since 1 June heating degree days 0 12  
Since 1 July heating degree days 0 1  
Cooling Degree Days 18 9  
Month to date cooling degree days 271 183  
Year to date cooling degree days 1339 813  
Since 1 June cooling degree days 1053 727  
Growing Degree Days 33 (Base 50)    
Moisture  
Dew Point 69 °F    
Average Humidity 70    
Maximum Humidity 93    
Minimum Humidity 40    
Precipitation  
Precipitation 0.14 in 0.11 in 1.57 in (2015)
Month to date precipitation 1.65 2.48  
Year to date precipitation 26.95 27.00  
Sea Level Pressure  
Sea Level Pressure 30.00 in    
Wind  
Wind Speed 2 mph ()    
Max Wind Speed 16 mph    
Max Gust Speed 29 mph    
Visibility 9.3 miles    
Events Rain , Thunderstorm    
T = Trace of Precipitation, MM = Missing Value Source: Averaged Metar Reports

Daily Weather History Graph

Daily Weather History Graph

Search for Another Location

Airport or City:

Astronomy

Aug. 19, 2019 Rise Set
Actual Time 6:32 AM EDT 8:02 PM EDT
Civil Twilight 6:04 AM EDT 8:30 PM EDT
Nautical Twilight 5:30 AM EDT 9:03 PM EDT
Astronomical Twilight 4:55 AM EDT 9:38 PM EDT
Moon 10:26 PM EDT (8/19) 10:08 AM EDT (8/19)
Length of Visible Light 14h 25m
Length of Day
13h 30m
Waning Gibbous, 85% of the Moon is Illuminated
Aug 19
Waning Gibbous
Aug 23
Last Quarter
Aug 30
New
Sep 5
First Quarter
Sep 14
Full

Hourly Weather History & Observations

Time (EDT) Temp. Heat Index Dew Point Humidity Pressure Visibility Wind Dir Wind Speed Gust Speed Precip Events Conditions
12:53 AM 73.9 °F - 66.9 °F 79% 29.98 in 10.0 mi Calm Calm - N/A   Clear
1:53 AM 73.0 °F - 68.0 °F 84% 29.97 in 10.0 mi Calm Calm - N/A   Clear
2:53 AM 72.0 °F - 66.9 °F 84% 29.97 in 10.0 mi Calm Calm - N/A   Clear
3:53 AM 73.9 °F - 68.0 °F 82% 29.97 in 10.0 mi Calm Calm - N/A   Clear
4:53 AM 72.0 °F - 68.0 °F 87% 29.98 in 10.0 mi Calm Calm - N/A   Clear
5:53 AM 71.1 °F - 66.9 °F 87% 29.98 in 10.0 mi Calm Calm - N/A   Mostly Cloudy
6:53 AM 72.0 °F - 66.9 °F 84% 29.99 in 10.0 mi South 3.5 mph - N/A   Partly Cloudy
7:53 AM 75.0 °F - 68.0 °F 79% 30.01 in 10.0 mi Variable 3.5 mph - N/A   Clear
8:53 AM 78.1 °F - 69.1 °F 74% 30.01 in 10.0 mi Calm Calm - N/A   Clear
9:53 AM 84.0 °F 89.0 °F 71.1 °F 65% 30.01 in 10.0 mi Variable 3.5 mph - N/A   Clear
10:53 AM 89.1 °F 96.0 °F 72.0 °F 57% 30.01 in 10.0 mi Variable 3.5 mph - N/A   Clear
11:53 AM 91.9 °F 96.9 °F 69.1 °F 47% 30.01 in 10.0 mi Calm Calm - N/A   Clear
12:53 PM 95.0 °F 102.5 °F 71.1 °F 46% 30.01 in 10.0 mi Variable 3.5 mph - N/A   Clear
1:53 PM 96.1 °F 101.0 °F 68.0 °F 40% 30.00 in 10.0 mi North 3.5 mph - N/A   Clear
2:53 PM 95.0 °F 102.5 °F 71.1 °F 46% 29.98 in 10.0 mi ESE 4.6 mph - N/A   Partly Cloudy
3:53 PM 95.0 °F 101.3 °F 70.0 °F 44% 29.97 in 10.0 mi East 5.8 mph - N/A   Clear
4:53 PM 95.0 °F 100.7 °F 69.1 °F 43% 29.96 in 10.0 mi ESE 5.8 mph - N/A   Clear
5:35 PM 93.0 °F 97.9 °F 69.1 °F 45% 29.98 in 10.0 mi East 3.5 mph - N/A Thunderstorm Thunderstorm
5:53 PM 82.9 °F 84.6 °F 64.9 °F 54% 29.99 in 10.0 mi WNW 12.7 mph 28.8 mph N/A Thunderstorm Thunderstorm
6:11 PM 77.0 °F - 66.0 °F 69% 30.02 in 1.8 mi SSW 10.4 mph 21.9 mph 0.10 in Rain , Thunderstorm Heavy Thunderstorms and Rain
6:20 PM 75.9 °F - 66.0 °F 71% 30.00 in 3.0 mi South 9.2 mph 21.9 mph 0.13 in Rain , Thunderstorm Thunderstorms and Rain
6:43 PM 73.9 °F - 68.0 °F 82% 30.00 in 10.0 mi North 5.8 mph - 0.14 in Rain Light Rain
6:53 PM 75.0 °F - 69.1 °F 82% 29.99 in 10.0 mi NNE 3.5 mph - 0.14 in Rain Light Rain
7:53 PM 75.9 °F - 71.1 °F 85% 30.00 in 9.0 mi Calm Calm - 0.00 in   Clear
8:53 PM 73.9 °F - 71.1 °F 91% 30.02 in 9.0 mi Calm Calm - N/A   Clear
9:53 PM 73.0 °F - 70.0 °F 90% 30.03 in 7.0 mi Calm Calm - N/A   Clear
10:53 PM 73.9 °F - 70.0 °F 87% 30.04 in 10.0 mi Variable 3.5 mph - N/A   Clear
11:53 PM 73.9 °F - 69.1 °F 85% 30.04 in 10.0 mi Calm Calm - N/A   Clear